This demonstration page uses our WeatherBlox Daily Observations layout. Learn more.

Hourly Observations for September 8, 2019

Temp ( °F °C ) Dew Point ( °F °C ) Humidity (%) Winds ( mph kmh ) Pressure ( in mb ) Visibility ( mi km ) Precip ( " mm )
12:15 am 00:15 Partly Cloudy with Mist and Fog 62 16.8 62 16.8 100 100 Calm 29.88 1012 3 4.82802 0 0
12:35 am 00:35 Clear with Mist and Fog 61 16.2 61 16.2 100 100 ENE 3 6 29.9 1012 5 8.0467 0 0
12:55 am 00:55 Clear with Mist and Fog 62 16.5 62 16.5 100 100 ENE 3 6 29.9 1012 2 3.21868 0 0
1:15 am 01:15 Partly Cloudy with Mist and Fog 61 16 61 16 100 100 NE 5 7 29.91 1013 2.5 4.02335 0 0
1:35 am 01:35 Cloudy with Fog 61 15.9 61 15.9 100 100 ENE 3 6 29.92 1013 0.5 0.80467 0 0
1:55 am 01:55 Cloudy with Fog 62 16.4 62 16.4 100 100 NNE 3 6 29.92 1013 0.25 0.402335 0 0
2:15 am 02:15 Cloudy with Fog 62 16.5 62 16.5 100 100 NE 3 6 29.92 1013 0.5 0.80467 0 0
2:35 am 02:35 Cloudy with Fog 62 16.6 62 16.6 100 100 ENE 3 6 29.92 1013 0.25 0.402335 0 0
2:55 am 02:55 Cloudy with Fog 62 16.5 62 16.5 100 100 NE 5 7 29.92 1013 0.25 0.402335 0 0
3:15 am 03:15 Cloudy with Fog 62 16.5 62 16.5 100 100 NNE 6 9 29.91 1013 0.25 0.402335 0 0
3:35 am 03:35 Cloudy with Fog 62 16.5 62 16.5 100 100 Calm 29.91 1013 0.25 0.402335 0 0
3:55 am 03:55 Cloudy with Fog 62 16.5 62 16.5 100 100 NE 3 6 29.91 1013 0.25 0.402335 0 0
4:15 am 04:15 Cloudy with Fog 62 16.5 62 16.5 100 100 NNE 3 6 29.91 1013 0.5 0.80467 0 0
4:35 am 04:35 Cloudy with Fog 62 16.5 62 16.5 100 100 N 5 7 29.91 1013 0.25 0.402335 0 0
4:55 am 04:55 Cloudy with Fog 62 16.5 62 16.5 100 100 N 6 9 29.91 1013 0.5 0.80467 0 0
5:15 am 05:15 Cloudy with Fog 62 16.5 62 16.5 100 100 N 6 9 29.91 1013 0.5 0.80467 0 0
5:35 am 05:35 Cloudy with Fog 62 16.4 62 16.4 100 100 Calm 29.92 1013 0.5 0.80467 0 0
5:55 am 05:55 Cloudy with Fog 62 16.6 62 16.6 100 100 Calm 29.93 1013 0.5 0.80467 0 0
6:15 am 06:15 Cloudy with Fog 62 16.7 62 16.7 100 100 W 6 9 29.93 1014 0.5 0.80467 0 0
6:35 am 06:35 Cloudy with Fog 62 16.6 62 16.6 100 100 NW 5 7 29.94 1014 0.5 0.80467 0 0
6:55 am 06:55 Cloudy with Mist and Fog 62 16.7 62 16.7 100 100 NNW 7 11 29.93 1014 1 1.60934 0 0
7:15 am 07:15 Cloudy with Mist and Fog 62 16.8 62 16.8 100 100 NNW 8 13 29.93 1014 0.75 1.207005 0 0
7:35 am 07:35 Cloudy with Mist and Fog 62 16.5 62 16.5 100 100 NNW 9 15 29.95 1014 1 1.60934 0 0
7:55 am 07:55 Cloudy with Mist and Fog 62 16.6 62 16.6 100 100 N 8 13 29.95 1014 3 4.82802 0 0
8:15 am 08:15 Cloudy with Mist and Fog 62 16.8 62 16.8 100 100 N 12 19 29.94 1014 2.5 4.02335 0 0
8:35 am 08:35 Cloudy with Mist and Fog 62 16.4 62 16.4 100 100 N 13 20 29.95 1014 2.5 4.02335 0 0
8:55 am 08:55 Cloudy 59 15.1 59 15.1 100 100 NNE 10 17 29.97 1015 10 16.0934 0 0
9:15 am 09:15 Cloudy 58 14.6 58 14.6 100 100 NNE 13 20 29.97 1015 10 16.0934 0 0
9:35 am 09:35 Cloudy 59 14.8 59 14.8 100 100 NNE 12 19 29.98 1015 10 16.0934 0 0
9:55 am 09:55 Cloudy 59 15 59 15 100 100 NE 13 20 29.98 1015 10 16.0934 0 0
10:15 am 10:15 Cloudy 59 15.2 59 15.2 100 100 NE 14 22 29.99 1015 10 16.0934 0 0
10:35 am 10:35 Cloudy 62 16.6 60 15.4 93 93 NE 9 15 29.98 1015 10 16.0934 0 0
10:55 am 10:55 Cloudy 63 17.1 60 15.6 91 91 NE 10 17 29.97 1015 10 16.0934 0 0
11:15 am 11:15 Cloudy 63 17.4 61 15.9 91 91 ENE 7 11 29.97 1015 10 16.0934 0 0
11:35 am 11:35 Cloudy 64 17.6 61 16.3 92 92 NNE 6 9 29.98 1015 10 16.0934 0 0
11:55 am 11:55 Cloudy 65 18.5 62 16.6 89 89 N 12 19 29.94 1014 10 16.0934 0 0
12:15 pm 12:15 Mostly Cloudy 67 19.4 62 16.8 85 85 NNE 9 15 29.92 1013 10 16.0934 0 0
12:35 pm 12:35 Cloudy 68 20 63 17.2 84 84 NNE 12 19 29.92 1013 10 16.0934 0 0
12:55 pm 12:55 Cloudy 69 20.6 63 17.4 82 82 NE 9 15 29.89 1012 10 16.0934 0 0
1:15 pm 13:15 Mostly Cloudy 71 21.4 65 18.4 83 83 NE 10 17 29.89 1012 10 16.0934 0 0
1:35 pm 13:35 Mostly Cloudy 72 22.1 66 18.8 82 82 NNE 8 13 29.88 1012 10 16.0934 0 0
1:55 pm 13:55 Mostly Cloudy 73 22.5 65 18.6 79 79 NNE 12 19 29.86 1011 10 16.0934 0 0
2:15 pm 14:15 Mostly Cloudy 73 22.8 66 18.8 78 78 NNE 10 17 29.86 1011 10 16.0934 0 0
2:35 pm 14:35 Mostly Cloudy 74 23.3 66 19.1 77 77 E 9 15 29.85 1011 10 16.0934 0 0
2:55 pm 14:55 Mostly Cloudy 73 23 66 18.8 77 77 ENE 10 17 29.84 1011 10 16.0934 0 0
3:15 pm 15:15 Cloudy 72 22.2 66 19 82 82 E 12 19 29.86 1011 10 16.0934 0 0
3:35 pm 15:35 Cloudy 72 22 66 19 83 83 ESE 9 15 29.87 1012 10 16.0934 0 0
3:55 pm 15:55 Cloudy 71 21.5 66 18.7 84 84 E 10 17 29.87 1011 10 16.0934 0 0
4:15 pm 16:15 Cloudy 70 21.2 66 18.8 86 86 E 8 13 29.87 1011 10 16.0934 0 0
4:35 pm 16:35 Cloudy 70 21.1 66 18.8 87 87 E 8 13 29.88 1012 10 16.0934 0 0
4:55 pm 16:55 Cloudy 70 21.1 66 18.9 87 87 E 8 13 29.87 1011 10 16.0934 0 0
5:15 pm 17:15 Cloudy 70 21 66 19 88 88 ENE 8 13 29.86 1011 10 16.0934 0 0
5:35 pm 17:35 Cloudy 71 21.5 67 19.3 87 87 E 7 11 29.85 1011 10 16.0934 0 0
5:55 pm 17:55 Cloudy 70 21.2 67 19.2 88 88 E 6 9 29.85 1011 10 16.0934 0 0
6:15 pm 18:15 Cloudy 71 21.6 67 19.6 88 88 ENE 8 13 29.83 1010 10 16.0934 0 0
6:35 pm 18:35 Cloudy 71 21.5 67 19.5 88 88 E 8 13 29.84 1010 10 16.0934 0 0
6:55 pm 18:55 Cloudy 70 21.1 67 19.4 90 90 ENE 9 15 29.83 1010 10 16.0934 0 0
7:15 pm 19:15 Cloudy 69 20.8 67 19.4 92 92 ENE 8 13 29.83 1010 10 16.0934 0 0
7:55 pm 19:55 Cloudy 68 20.2 67 19.2 94 94 ENE 9 15 29.83 1010 10 16.0934 0 0
8:15 pm 20:15 Cloudy 68 20.1 67 19.5 96 96 ENE 8 13 29.83 1010 10 16.0934 0 0
8:35 pm 20:35 Cloudy 68 20.1 67 19.5 96 96 ENE 9 15 29.83 1010 10 16.0934 0 0
8:55 pm 20:55 Cloudy 68 20.1 67 19.5 96 96 ENE 10 17 29.84 1010 10 16.0934 0 0
9:15 pm 21:15 Cloudy 68 20 67 19.5 97 97 ENE 8 13 29.84 1010 10 16.0934 0 0
9:35 pm 21:35 Cloudy 68 20 67 19.6 98 98 E 9 15 29.85 1011 10 16.0934 0 0
9:55 pm 21:55 Cloudy 68 20.1 67 19.7 98 98 E 9 15 29.85 1011 10 16.0934 0 0
10:15 pm 22:15 Cloudy 69 20.3 68 20 98 98 E 12 19 29.85 1011 10 16.0934 0 0
10:35 pm 22:35 Cloudy 69 20.3 68 20 98 98 E 12 19 29.85 1011 7 11.26538 0 0
10:55 pm 22:55 Cloudy 69 20.5 69 20.3 99 99 E 12 19 29.85 1011 7 11.26538 0 0
11:15 pm 23:15 Cloudy 69 20.6 69 20.4 99 99 E 10 17 29.84 1011 7 11.26538 0 0
11:35 pm 23:35 Cloudy 69 20.6 69 20.5 99 99 E 16 26 29.84 1011 7 11.26538 0 0
11:55 pm 23:55 Cloudy with Mist and Fog 69 20.5 69 20.5 100 100 E 13 20 29.83 1010 4 6.43736 0 0

Powered by AerisWeather